Theta_e
324 319 314 313 316 318 318 321 322 323 322 319 315 314 319 323 326 326 327 326 325 328 331 331 330 331 331 331 332 334 335 335 335 334 333 333 332 329 319 312 311 309 309 308 308 310 311 310 311 312 319 327 323 318 317 319 317 314 313 312 313 313 313 313 313 313 313 314 313 314 314 314 314 314 314 315 315 315 315 316 316 316 317 317 317
323 319 315 313 316 317 318 320 321 322 320 318 315 314 318 321 324 325 327 325 326 330 331 331 331 331 331 331 332 334 335 334 335 334 334 333 332 329 320 314 311 308 308 307 309 310 310 310 312 316 319 320 317 317 318 317 314 313 312 312 313 313 313 313 313 313 313 314 314 314 314 314 314 314 314 314 315 315 315 315 315 315 316 317 317
322 317 315 313 316 317 318 320 321 322 319 317 315 314 316 320 323 325 326 325 327 331 331 331 331 332 331 332 332 334 334 335 334 334 334 333 333 329 321 317 312 308 308 307 309 309 310 311 313 316 317 317 317 318 317 314 313 312 312 312 313 313 314 313 314 313 313 313 313 314 314 314 314 314 314 314 314 314 314 315 315 315 315 316 317
320 315 314 313 317 316 317 320 321 321 319 316 314 314 315 319 321 324 325 325 328 331 331 332 332 332 332 332 332 334 335 334 334 334 334 333 333 330 326 320 312 310 310 307 309 309 311 314 314 315 315 316 317 317 315 313 312 312 312 312 313 313 313 313 313 313 313 313 313 313 313 313 313 313 313 313 313 314 314 314 314 314 315 315 316
319 315 313 314 317 316 317 320 321 321 318 316 314 313 315 318 321 323 324 325 329 331 331 332 332 332 332 332 332 333 334 335 334 334 334 333 332 331 330 320 310 311 310 307 309 310 312 315 315 315 316 316 316 315 313 312 312 312 313 313 313 313 313 313 313 313 313 313 313 313 313 312 312 312 312 313 313 313 313 313 314 314 314 315 315
318 314 313 314 316 315 317 320 321 321 318 315 314 313 315 317 320 322 323 327 330 331 332 332 332 332 332 332 333 333 334 334 333 334 333 333 332 331 330 319 309 309 309 310 310 310 313 314 315 315 315 315 315 314 312 312 312 313 313 313 313 313 313 313 313 313 313 313 314 314 313 313 313 314 313 313 313 313 313 314 314 314 314 315 315
318 313 314 314 316 316 317 321 321 321 317 314 313 314 315 318 320 322 325 329 331 331 332 332 333 333 332 332 332 333 333 332 330 331 331 331 331 332 331 320 311 310 309 311 310 312 313 313 314 314 314 314 313 313 313 313 313 313 313 313 313 313 313 313 314 314 314 315 318 316 314 316 318 320 320 318 316 314 314 315 315 315 315 315 316
318 313 313 314 317 316 318 320 321 320 316 314 314 314 316 318 320 324 328 331 331 331 332 332 333 333 332 332 331 331 331 329 327 328 328 329 327 328 328 318 311 310 308 309 313 316 313 313 314 313 313 312 313 313 313 313 314 314 314 315 316 315 315 316 316 317 318 320 323 319 317 321 325 327 327 326 324 320 316 315 316 317 317 317 317
317 314 313 315 320 318 318 321 321 319 315 313 313 314 317 319 322 327 331 331 331 332 332 332 332 332 332 331 330 329 327 325 322 322 325 325 321 319 318 314 311 310 308 309 316 320 315 313 315 313 313 312 313 313 314 315 316 317 318 318 318 319 319 320 321 322 322 324 327 324 322 325 328 330 329 330 329 326 321 317 317 317 318 318 318
317 315 312 316 322 319 318 321 320 318 314 313 314 317 320 323 327 331 332 332 332 332 332 332 331 331 330 328 326 324 321 318 316 314 316 316 313 312 311 311 312 309 308 309 315 321 317 314 314 313 314 314 315 316 317 318 319 320 320 320 320 321 321 322 323 324 324 326 329 329 328 328 330 331 330 330 330 329 327 323 321 319 320 320 320
318 315 312 318 323 318 319 321 320 317 312 314 320 324 326 327 331 332 332 332 332 332 331 331 330 328 326 323 320 317 315 313 311 309 309 309 308 309 309 311 312 309 309 310 313 316 315 313 314 316 317 317 317 319 320 321 321 321 320 321 322 323 322 323 325 325 325 327 330 330 330 329 330 331 330 331 330 330 329 328 326 324 323 322 321
320 316 313 320 322 318 319 322 320 315 314 321 328 330 330 330 331 332 333 332 332 332 332 330 327 323 320 317 315 313 311 309 308 308 308 308 308 308 310 312 311 310 309 311 312 313 313 313 316 318 319 319 320 321 323 323 322 322 322 322 324 325 324 325 327 327 327 329 330 330 330 330 330 332 331 330 331 330 329 329 327 327 325 322 322
323 317 313 319 320 319 320 322 320 313 319 329 331 332 333 331 332 333 332 332 333 332 330 326 321 317 314 313 311 309 308 308 308 308 308 308 308 309 310 311 311 310 310 312 314 314 315 316 318 319 320 321 322 323 323 323 323 323 323 323 324 324 325 326 328 327 327 330 331 330 331 330 331 332 331 331 331 330 330 329 328 329 326 322 323
325 319 317 317 317 318 321 323 318 314 325 332 332 333 332 331 333 333 332 332 332 330 326 320 316 312 311 310 309 308 307 308 308 308 309 309 309 309 310 312 311 311 311 313 315 316 317 318 319 321 322 323 323 324 323 323 323 324 324 324 324 323 324 326 327 327 327 330 331 330 330 330 331 331 331 332 331 330 330 329 330 331 328 324 323
327 324 321 317 317 318 321 321 315 319 330 333 332 332 331 331 332 332 332 332 330 327 321 316 313 310 310 309 308 308 308 308 308 308 309 309 310 310 311 312 311 311 312 313 315 317 318 320 321 323 325 326 325 325 324 324 324 325 325 325 325 325 325 326 328 327 327 329 329 329 329 330 330 331 331 332 331 331 331 331 331 331 331 329 328
330 327 321 317 317 318 321 319 315 323 331 331 332 331 332 332 332 332 332 331 328 323 318 314 312 310 309 308 308 308 308 308 308 308 309 310 311 312 312 312 311 311 311 313 315 317 318 320 321 323 325 327 327 327 327 326 326 326 326 326 326 325 326 328 329 328 328 328 327 328 329 330 330 331 331 331 331 331 332 332 331 331 332 332 331
332 326 319 317 317 319 321 316 317 327 330 330 332 331 332 332 332 332 331 329 326 320 316 314 311 309 308 308 308 308 308 308 308 308 309 310 311 313 313 311 311 311 311 311 313 315 317 319 320 322 324 326 327 328 328 328 328 328 327 327 326 326 326 328 329 330 329 327 326 328 330 330 330 331 331 331 331 331 332 332 332 332 332 332 332
330 322 317 316 317 320 319 316 324 332 333 332 333 332 333 332 333 332 331 329 324 319 316 313 310 309 308 308 308 308 308 308 308 308 308 310 311 313 313 311 311 311 311 311 311 312 314 316 317 320 322 324 326 327 328 329 329 328 328 327 326 325 327 328 329 330 329 327 327 329 330 330 330 331 331 331 331 332 333 333 332 332 332 332 332
325 319 316 316 318 321 317 322 332 335 334 335 334 334 333 333 333 333 331 329 324 319 316 313 309 308 308 308 308 308 309 308 308 308 309 309 310 312 313 312 311 311 312 311 311 311 312 313 315 317 319 321 323 325 326 327 328 328 327 324 322 324 328 329 330 330 329 328 328 330 330 330 330 331 331 331 332 332 333 333 332 332 332 332 332
321 317 315 316 319 320 317 326 335 335 335 335 335 335 334 333 334 333 332 329 324 320 316 312 309 309 309 309 310 310 311 310 310 309 309 309 310 311 312 312 311 311 312 312 312 312 311 312 313 314 315 317 318 319 321 322 324 324 321 319 319 322 326 327 328 329 328 328 330 330 330 330 331 331 331 331 332 333 333 333 332 332 332 332 332
319 316 315 318 320 319 319 326 334 335 335 334 335 335 334 334 334 333 331 328 324 320 315 311 310 311 311 312 312 313 313 314 313 312 311 309 310 311 312 312 311 311 311 312 312 312 312 312 312 312 312 313 313 314 315 317 318 318 317 319 321 323 323 323 325 327 328 329 330 330 330 330 330 330 331 332 333 333 333 332 332 332 332 332 332
319 316 316 319 319 320 321 328 333 336 336 334 335 335 334 335 334 333 330 327 323 319 315 312 312 313 314 314 314 316 318 320 320 319 317 314 312 311 311 312 312 312 312 312 312 312 313 313 313 312 312 312 313 313 314 315 316 318 322 325 326 326 326 326 326 328 329 330 330 329 329 330 330 331 332 333 333 333 333 332 331 331 331 331 331
319 316 317 319 322 326 326 330 333 335 336 335 335 335 335 335 334 332 329 326 322 318 316 314 315 316 316 316 318 322 325 327 327 327 325 323 320 317 314 313 313 313 313 313 313 313 313 314 314 314 313 314 314 315 316 317 320 323 326 327 328 328 328 329 329 329 329 330 330 330 330 330 330 332 332 333 333 333 333 332 332 332 331 331 331
319 316 317 319 325 330 330 332 334 335 336 336 335 334 335 334 333 332 329 326 321 318 318 317 317 318 319 321 325 327 329 330 330 330 329 329 327 325 323 321 318 316 315 314 314 313 313 313 313 313 313 313 315 316 317 319 321 323 325 327 328 329 331 331 331 331 331 332 332 332 332 332 332 333 333 333 333 333 333 332 332 332 331 331 330
320 317 317 319 324 329 331 334 333 333 335 336 336 335 334 334 333 331 329 326 320 318 320 320 319 320 322 326 329 330 331 331 331 330 330 330 330 330 329 329 327 325 324 323 322 321 321 320 317 316 316 317 319 321 323 323 324 324 326 328 330 331 332 332 332 332 332 332 333 333 333 333 333 333 332 332 332 332 333 332 332 332 332 331 329
321 318 317 318 322 326 331 334 333 333 335 335 335 335 334 334 333 331 329 325 319 319 323 324 324 324 325 328 331 331 332 331 330 331 331 330 330 331 331 331 331 330 330 331 330 330 330 329 326 325 325 325 327 328 329 329 330 330 330 331 331 331 331 332 333 332 332 332 332 333 333 332 332 332 331 331 331 331 331 332 332 332 332 331 330
325 320 317 318 321 325 330 333 333 333 334 334 333 334 335 334 333 330 327 322 319 320 323 327 328 328 329 330 332 332 331 331 330 330 331 330 330 331 331 331 331 331 331 332 332 332 332 332 332 331 331 330 331 331 332 332 331 331 331 331 330 330 330 331 332 332 332 332 332 333 333 332 332 332 331 330 330 330 331 331 332 332 332 332 331
330 325 319 318 320 324 330 332 333 334 334 333 333 333 334 334 332 329 324 319 319 322 325 328 330 330 331 332 332 332 332 331 330 330 330 331 331 330 330 331 332 332 331 332 332 332 332 332 332 332 333 332 332 332 331 331 331 330 330 330 329 329 329 330 331 331 332 332 332 333 332 332 332 331 330 330 330 330 331 331 331 332 331 331 331
334 329 324 319 319 324 329 332 333 334 334 333 332 333 334 333 331 327 322 318 320 325 328 329 330 331 331 331 332 332 333 332 332 331 331 332 331 330 331 332 332 331 331 331 331 331 332 332 331 331 332 331 331 330 330 330 330 330 330 330 330 330 330 331 331 331 332 332 332 332 332 332 331 331 331 331 330 329 330 331 331 331 331 331 331
335 331 326 319 318 322 328 332 332 333 334 333 332 333 334 333 330 327 323 320 321 325 327 328 329 330 330 330 331 331 332 332 332 332 332 332 331 330 331 332 332 331 331 331 331 331 330 330 330 330 330 330 330 330 330 330 330 330 330 329 330 330 330 330 331 331 332 331 331 331 331 332 332 331 331 331 330 329 330 331 331 331 331 331 331
336 332 326 320 319 321 326 331 331 332 334 333 332 333 333 332 330 328 325 322 322 324 326 327 327 328 329 329 330 332 332 332 332 332 332 332 331 331 331 332 333 332 331 331 330 330 329 329 330 330 330 330 330 330 330 330 330 329 329 328 328 329 329 330 331 331 331 330 330 330 331 331 331 331 331 330 329 329 330 331 331 330 330 330 330
337 331 326 322 323 323 325 329 330 331 332 331 331 332 332 332 331 329 327 325 325 327 326 326 327 328 328 329 330 332 333 332 332 332 332 333 332 331 331 332 333 332 331 329 329 329 329 330 330 330 330 330 329 329 329 330 330 329 328 328 328 328 329 330 330 330 330 329 329 330 331 331 331 331 331 330 330 330 330 330 330 329 329 329 330
339 332 327 325 326 326 325 326 327 327 327 328 329 331 331 332 331 329 329 327 326 328 328 327 328 328 328 329 331 333 334 333 333 332 333 333 332 332 332 332 332 332 331 330 329 330 330 330 330 329 329 329 328 329 329 330 330 328 328 327 328 328 329 330 330 329 329 329 329 330 331 331 331 331 331 330 330 330 330 330 329 329 329 329 329
340 335 330 327 328 328 327 325 324 324 326 327 328 329 331 332 331 330 329 328 328 330 329 328 329 329 329 330 332 333 333 333 332 333 333 333 333 332 332 332 332 332 331 331 331 330 330 330 330 330 329 329 329 329 329 329 329 329 328 328 329 329 330 330 329 329 329 328 329 329 330 331 331 331 331 331 330 330 330 329 329 329 329 329 329
342 338 331 329 330 329 329 328 328 329 328 329 329 327 330 332 330 330 328 329 331 332 331 330 331 331 331 332 332 333 333 333 332 332 333 333 333 333 333 332 332 332 332 332 331 331 331 331 330 330 329 329 329 329 329 329 330 329 328 328 328 329 329 329 328 328 328 328 329 329 329 329 330 330 330 329 329 329 329 328 328 328 328 328 328
342 340 333 330 331 330 331 332 332 333 327 326 328 327 329 331 330 330 329 331 333 333 332 332 332 333 333 333 333 332 332 332 332 332 333 333 333 333 333 333 332 332 332 332 331 331 331 331 330 330 329 329 329 329 329 329 329 329 329 328 328 327 327 327 327 327 328 328 328 328 328 328 328 328 328 327 327 327 327 326 326 326 326 326 326
342 340 333 331 331 331 334 334 335 334 324 320 325 326 329 331 330 330 330 332 334 334 334 333 333 333 333 333 333 332 332 331 331 331 332 332 333 334 334 333 332 332 332 331 331 330 330 331 330 330 329 329 329 328 329 328 328 328 328 327 327 326 326 326 326 326 327 327 327 326 326 326 325 324 324 324 323 322 322 322 322 323 324 324 324
342 338 333 331 331 333 336 336 336 333 322 319 323 325 329 330 330 331 333 334 333 333 333 334 334 333 332 333 333 333 332 332 331 331 331 332 333 334 334 333 332 331 330 330 329 329 330 330 330 329 329 329 328 328 328 327 327 327 326 326 325 325 325 325 325 326 326 325 325 324 324 322 321 320 319 317 316 314 312 312 313 314 316 318 320
340 336 332 331 332 335 336 334 334 331 325 322 324 327 329 330 331 333 334 333 333 333 334 335 335 333 332 334 334 333 333 332 332 331 331 332 333 333 333 332 331 330 330 329 329 329 329 329 329 328 328 328 327 326 325 325 325 323 322 323 323 324 324 324 325 325 324 324 323 322 321 318 316 313 311 308 306 304 303 303 303 304 305 306 308
338 334 333 332 334 337 336 333 332 331 329 328 327 329 331 332 333 334 333 333 333 334 334 334 334 333 333 334 334 333 333 332 331 331 331 331 332 332 331 330 330 330 330 329 329 329 328 328 328 327 327 326 323 321 320 320 319 318 319 320 321 323 323 324 324 324 323 322 320 318 315 311 307 305 303 301 300 300 299 299 299 299 299 299 300
338 335 334 334 335 338 336 333 333 333 332 331 330 331 332 332 333 333 333 333 334 334 334 334 333 334 334 334 334 333 332 331 330 331 331 331 331 331 330 329 330 330 330 329 329 328 327 327 327 326 324 320 318 316 315 315 314 315 317 318 320 322 322 322 322 321 320 317 314 311 307 303 301 300 299 299 299 299 299 299 299 298 298 298 298
339 337 336 336 337 338 335 333 334 334 333 332 331 331 332 332 332 333 333 334 334 334 334 333 333 334 334 333 333 332 331 331 331 331 331 331 330 330 329 329 329 330 329 329 328 327 327 327 325 322 318 315 314 313 312 312 312 314 315 318 320 321 321 322 321 317 314 312 308 304 301 299 299 299 298 298 298 298 298 298 298 298 298 298 298
341 339 338 338 339 338 335 334 335 335 333 333 332 332 332 332 332 333 334 334 334 334 334 334 334 334 333 333 332 331 331 332 332 331 330 330 329 329 328 328 329 329 328 327 327 326 326 324 319 315 313 312 311 311 311 310 310 313 316 319 320 320 323 321 316 312 310 307 303 300 299 298 298 298 298 298 298 298 298 297 297 297 297 297 297
341 341 340 339 339 338 336 335 335 334 333 333 333 333 332 332 332 334 334 334 334 334 334 334 334 333 332 332 331 331 331 330 330 330 330 329 328 328 327 327 327 327 325 325 325 323 320 317 313 312 311 310 310 309 309 307 307 310 313 317 318 320 321 314 308 308 305 304 300 298 298 298 298 298 297 298 297 297 297 297 297 297 297 297 297
340 341 340 339 339 338 337 336 334 333 333 332 333 332 332 331 332 334 334 334 335 335 334 334 333 332 332 331 331 330 330 329 329 329 328 328 327 327 325 325 324 324 324 323 321 317 313 311 310 310 308 308 307 305 305 304 303 304 306 310 314 315 310 304 307 308 302 301 299 297 298 298 298 298 297 297 297 296 296 296 296 296 296 296 296
339 339 338 337 337 336 336 335 333 332 333 333 332 331 331 331 331 333 334 334 335 334 334 333 333 332 331 331 330 330 329 329 328 327 327 327 326 325 323 323 323 323 322 318 313 311 309 309 308 307 305 305 304 303 303 303 302 302 302 303 306 306 302 300 306 307 301 299 298 297 298 297 298 298 297 297 296 296 296 296 296 296 296 296 296
338 338 336 335 334 333 334 334 332 333 333 333 333 332 332 331 332 333 334 334 334 334 333 332 332 331 330 330 330 329 328 328 327 327 327 326 325 322 321 322 322 320 316 311 309 307 307 306 305 304 303 302 302 302 302 302 301 302 301 301 301 301 300 299 301 303 302 301 298 296 297 297 297 297 296 296 296 296 296 296 296 295 295 295 295
337 336 335 334 332 332 333 333 332 333 333 333 333 333 333 333 334 335 335 335 334 334 333 332 331 330 329 329 329 328 327 327 328 327 326 324 322 321 321 321 319 314 310 307 306 305 304 303 302 301 301 301 301 301 301 301 301 301 301 301 300 300 300 299 299 299 300 301 299 297 296 296 296 296 296 296 296 296 295 295 295 295 295 295 295
336 335 334 333 332 332 333 332 332 333 333 333 334 333 334 335 335 335 334 334 334 333 333 332 330 329 329 328 328 327 327 328 327 325 323 322 322 321 319 318 314 309 307 305 304 303 302 301 300 300 300 300 301 301 301 301 301 301 300 300 300 299 299 299 300 299 298 300 299 297 296 296 296 295 295 295 295 295 295 295 295 295 295 295 295
336 335 334 333 332 332 332 332 332 332 333 334 334 334 334 335 335 334 334 333 333 332 332 331 330 329 328 327 327 327 326 326 325 323 322 322 320 319 317 313 310 307 304 303 302 301 300 300 300 300 300 300 300 300 300 300 300 300 299 299 299 299 299 299 299 299 299 298 298 297 297 296 296 295 295 295 295 295 295 295 295 295 295 295 295
336 336 334 333 333 333 333 333 333 333 333 334 334 334 334 334 334 334 333 333 332 332 331 331 330 329 328 327 326 326 325 324 323 322 322 320 318 316 312 309 306 304 303 301 300 299 299 299 299 299 299 300 300 300 300 300 300 300 299 300 300 299 299 299 299 298 298 298 297 297 297 296 296 295 295 295 295 295 295 294 294 295 295 295 295
Wind_Speed
22 19 16 15 15 18 18 17 17 16 16 16 16 16 16 16 15 14 14 12 11 11 12 12 12 11 11 11 11 12 11 10 10 9 8 8 8 8 9 10 8 7 6 6 7 10 12 13 14 14 15 14 14 15 15 16 17 18 18 18 18 18 18 18 18 17 17 17 16 16 16 16 16 17 17 17 18 18 18 18 18 19 19 18 17
24 20 17 16 16 18 19 18 17 17 16 16 16 16 16 16 15 14 13 12 11 11 12 12 12 11 11 10 11 11 10 10 9 9 9 9 9 8 9 10 10 8 8 9 10 13 14 15 16 16 16 16 16 17 17 18 18 18 18 18 18 18 18 17 17 17 16 16 16 16 16 16 16 17 17 17 17 18 18 18 17 18 18 18 17
23 21 18 16 17 19 19 18 18 17 16 16 16 16 16 16 15 14 13 11 11 11 12 12 11 11 10 10 10 10 9 9 9 9 9 10 10 9 9 11 11 9 10 11 13 14 16 17 17 17 17 18 19 19 18 18 18 18 18 18 18 17 17 16 16 16 16 16 15 15 15 16 16 16 17 17 17 17 18 17 17 17 17 17 17
21 20 18 17 17 19 20 19 18 17 17 16 16 16 16 15 14 13 12 11 11 11 11 11 11 10 10 10 10 9 9 8 8 9 9 10 10 9 8 10 11 10 10 12 13 14 16 18 19 19 19 20 20 19 18 18 18 18 17 17 17 16 16 15 15 15 15 16 15 15 15 15 16 16 17 17 17 17 18 18 18 18 17 17 17
20 19 18 18 18 19 20 20 19 18 17 16 16 16 15 15 14 13 12 11 11 11 11 11 10 10 9 9 9 9 8 8 8 8 9 10 10 9 7 8 10 9 11 13 14 15 16 19 20 20 20 20 19 19 18 18 17 17 17 16 16 15 15 14 14 14 15 15 15 16 16 16 17 17 17 17 18 18 18 18 18 18 18 18 17
19 18 18 17 18 19 20 20 19 18 17 16 16 16 16 15 14 13 12 11 11 11 11 10 10 9 9 9 9 9 8 8 7 8 8 9 9 8 6 7 9 9 11 12 14 16 17 19 20 19 19 19 19 19 18 17 17 16 16 15 14 14 13 13 13 13 14 14 15 17 17 18 18 19 19 19 19 19 19 19 18 18 18 18 18
18 17 17 16 17 19 21 20 19 18 17 17 17 16 16 15 14 14 12 12 11 11 10 10 10 9 9 8 8 8 7 7 6 6 7 8 8 8 5 5 8 9 11 13 14 16 18 19 19 19 19 19 18 18 17 16 16 15 14 14 13 12 12 12 12 12 13 14 16 17 18 19 20 20 21 21 21 21 20 19 18 18 18 18 18
18 17 16 16 17 19 21 20 19 18 17 17 17 16 16 15 14 14 12 11 11 11 10 10 10 9 8 8 8 7 6 5 5 5 6 7 7 7 5 4 6 8 11 13 15 16 18 18 18 18 18 18 17 17 16 16 15 14 13 12 11 11 11 11 11 12 13 15 16 17 18 19 19 20 20 21 21 21 21 19 19 19 19 18 18
17 16 16 16 16 19 20 20 19 18 18 17 17 17 16 15 14 13 12 11 11 11 10 10 9 9 8 7 6 5 4 4 3 4 6 6 6 5 4 4 6 9 11 13 15 16 17 17 17 17 17 17 16 16 15 14 14 13 12 11 11 11 10 10 11 12 13 15 16 16 17 18 19 19 19 20 20 21 21 20 19 19 19 19 18
17 16 16 17 16 19 20 19 19 18 18 18 17 16 15 15 14 13 12 11 11 11 10 9 9 8 7 6 5 4 4 4 4 4 5 5 4 4 5 6 7 9 12 13 14 15 16 16 16 16 16 16 15 15 13 13 12 11 11 11 11 10 10 10 11 12 13 13 14 15 16 16 17 18 17 18 19 19 20 20 19 18 18 19 19
16 16 17 17 16 19 20 19 18 18 18 18 17 15 15 14 13 12 12 11 11 10 10 9 8 7 6 5 5 5 5 5 5 5 5 5 6 6 7 8 8 9 12 13 13 14 16 16 16 15 15 14 13 13 11 10 10 10 10 10 10 9 9 9 10 11 11 12 12 13 14 15 16 16 16 18 19 19 19 19 19 18 19 19 18
16 15 17 16 16 19 20 19 18 19 18 17 16 15 14 13 13 12 11 11 10 10 9 8 7 6 6 5 5 6 6 7 7 6 6 7 7 8 9 10 9 10 12 13 13 13 15 15 15 14 13 12 12 10 9 8 7 8 8 8 8 8 8 8 8 9 10 10 11 11 13 14 14 15 16 17 18 19 19 19 19 19 19 18 17
16 15 16 15 16 19 20 19 19 19 18 16 15 14 13 13 13 12 11 10 10 9 8 7 6 6 6 6 7 7 7 8 7 7 7 8 9 9 10 11 11 10 11 13 13 13 14 14 14 13 11 10 10 9 7 6 6 6 6 6 7 7 7 7 7 7 8 9 9 10 10 11 12 13 15 17 18 18 19 19 19 19 19 17 16
16 16 16 16 17 19 20 19 19 19 17 16 15 14 13 13 12 11 10 10 10 9 7 6 6 6 7 8 8 8 8 8 8 8 8 8 9 10 11 12 11 11 12 13 13 13 13 13 13 12 10 9 8 7 6 5 4 4 4 5 5 6 6 6 6 6 6 7 8 9 9 9 10 11 14 16 17 17 18 18 17 18 18 17 16
15 16 16 16 17 19 19 19 19 18 16 15 15 14 13 12 12 11 10 10 9 8 7 6 6 7 8 9 9 9 8 8 8 8 9 9 9 11 12 13 12 11 12 13 13 13 12 12 12 11 10 8 7 6 5 4 3 2 3 4 5 5 5 6 6 6 6 7 8 8 8 8 9 10 12 14 16 16 16 16 16 15 16 16 16
15 15 16 16 18 20 19 19 19 17 16 15 13 13 12 12 11 11 10 10 8 7 7 7 7 8 9 9 9 9 9 9 9 9 9 9 10 11 12 13 13 12 11 12 12 12 11 11 11 10 9 8 7 5 4 3 2 1 1 3 4 5 6 6 6 6 7 8 8 8 8 7 8 9 11 12 14 15 15 15 15 14 14 15 15
16 16 16 17 18 20 20 19 18 16 15 14 12 12 11 12 11 11 10 9 8 7 7 8 9 9 10 10 9 9 9 9 9 9 9 9 10 10 12 13 13 12 11 11 11 10 10 10 10 9 8 7 7 5 4 3 2 2 2 3 5 6 7 6 7 7 8 8 8 8 7 7 8 9 10 11 12 14 14 14 14 13 13 14 15
16 16 17 17 18 19 20 20 17 15 13 12 11 11 11 12 12 11 10 8 7 7 8 8 10 10 10 10 9 9 9 9 9 9 9 10 10 11 11 12 12 11 11 10 9 9 9 9 9 9 8 7 7 6 5 4 4 4 4 4 6 7 7 7 8 8 9 9 9 8 7 7 8 9 9 10 11 13 13 13 14 13 12 13 14
16 17 17 17 19 20 21 19 17 17 14 12 11 10 12 12 11 10 9 7 6 7 8 9 10 10 10 10 9 9 9 9 9 9 9 9 10 11 11 11 11 11 10 10 9 8 8 8 8 8 8 8 7 6 5 5 5 6 6 7 8 8 8 8 9 9 9 9 8 8 7 7 8 9 9 10 11 12 13 13 13 12 12 12 13
17 17 17 18 20 20 21 18 16 17 16 14 12 11 12 12 11 10 8 6 6 6 8 10 10 11 11 10 9 9 10 10 10 10 9 9 10 10 11 11 11 10 9 9 8 8 7 7 7 7 7 7 7 7 6 7 7 7 7 7 7 8 8 9 9 9 10 9 8 8 7 7 8 9 9 9 10 11 13 13 12 10 10 11 11
19 18 18 19 21 21 20 18 17 17 16 15 13 12 12 12 11 10 8 6 6 6 8 9 10 11 11 10 9 9 10 10 10 10 10 9 9 9 10 10 10 9 9 8 8 7 7 6 6 6 6 6 6 6 6 6 6 6 5 5 5 6 7 8 8 9 9 9 8 8 7 8 9 9 9 9 10 11 12 13 11 9 9 10 11
21 20 20 21 22 20 20 18 17 16 15 15 14 13 12 11 11 9 8 6 6 7 9 10 10 10 10 10 9 9 9 9 9 9 8 8 8 8 8 9 8 8 7 7 7 6 6 6 6 6 6 6 6 6 6 6 6 5 4 3 4 5 6 7 8 9 9 9 9 9 8 9 9 9 9 9 9 11 13 12 11 10 10 11 12
22 21 22 23 21 19 18 18 17 16 15 15 15 14 12 12 11 9 7 6 7 8 9 10 10 10 10 10 9 8 8 8 7 7 7 6 6 7 7 7 6 6 5 5 5 5 5 5 6 6 5 5 5 6 6 6 6 5 4 4 5 6 7 7 8 8 9 9 9 10 10 10 9 9 9 8 8 10 12 12 11 10 11 12 12
22 22 22 22 19 17 18 17 16 15 15 14 15 14 13 12 11 9 7 6 7 9 10 10 10 10 10 10 8 8 7 7 6 6 6 5 5 5 5 6 5 5 4 4 3 3 3 3 3 3 3 3 4 5 6 7 6 6 6 6 7 7 7 7 7 8 8 8 9 9 9 9 8 8 8 8 8 10 11 12 12 11 11 12 12
22 22 22 22 20 18 17 16 15 15 14 13 14 14 13 12 10 9 8 7 8 10 11 11 11 10 10 8 7 6 6 5 5 5 5 5 4 4 4 4 4 3 3 2 2 1 1 0 1 1 2 2 2 3 4 5 6 6 6 7 7 7 7 7 7 8 8 8 8 9 9 8 8 8 8 8 8 8 9 11 11 11 11 11 11
22 22 22 21 20 19 17 15 14 15 14 13 13 13 13 12 10 9 8 8 9 11 11 10 10 10 9 7 6 6 5 5 5 5 4 4 3 3 3 4 3 3 2 2 2 2 2 2 2 2 2 2 2 3 4 4 5 5 6 6 7 7 7 8 8 9 9 9 9 9 10 9 10 10 10 10 9 9 9 10 11 11 11 10 10
22 21 22 21 20 19 17 14 14 15 14 13 12 13 13 12 10 9 8 9 10 11 10 10 9 9 8 6 5 4 4 4 4 4 4 3 2 2 2 3 3 3 2 2 2 3 3 3 3 3 3 3 4 5 5 6 6 6 6 7 7 8 9 9 9 10 10 10 10 11 11 12 12 12 11 10 10 11 11 11 11 12 12 11 11
21 21 22 21 19 18 16 14 14 14 14 12 12 12 13 12 10 9 9 10 10 11 10 10 9 8 6 5 4 3 3 2 2 4 3 3 2 2 2 2 2 2 2 2 3 4 4 4 5 5 5 4 4 5 6 6 6 6 7 8 9 9 10 10 10 10 10 10 11 12 12 13 13 13 12 10 10 10 11 12 12 12 13 12 11
20 21 22 21 19 17 16 15 14 14 13 12 12 13 13 12 10 9 9 9 10 10 10 9 8 6 5 4 3 2 2 2 2 3 2 2 2 2 2 2 2 2 2 2 2 3 3 3 4 4 4 4 4 5 5 6 7 8 9 9 10 10 11 10 10 10 10 11 11 12 13 14 14 14 13 11 10 10 10 11 12 12 13 13 12
19 20 21 20 18 16 16 15 14 14 13 13 13 13 13 12 11 10 9 9 9 10 8 7 6 5 4 3 2 2 2 3 3 3 1 1 1 1 2 1 2 1 1 1 2 3 3 3 3 4 3 3 4 5 6 7 8 9 10 11 11 11 12 11 11 10 11 11 12 13 13 14 14 14 13 13 12 11 10 10 10 11 12 12 13
18 20 21 20 18 17 15 14 13 13 13 13 13 13 13 13 12 11 10 9 9 8 7 6 5 4 3 2 1 1 1 1 2 2 1 1 1 0 1 1 1 1 1 2 3 3 3 3 4 4 4 5 5 6 7 8 9 11 11 11 11 11 11 11 11 11 11 11 11 12 12 12 13 13 13 13 13 11 10 10 10 11 12 12 13
18 20 21 19 18 17 16 14 13 13 14 14 14 13 14 14 13 12 11 9 8 6 5 5 6 4 3 2 1 0 1 2 2 3 2 2 2 2 2 1 1 2 3 3 4 4 5 5 5 5 6 6 7 8 9 10 10 11 11 11 11 11 10 10 10 10 10 10 10 10 10 11 12 12 13 13 12 11 11 11 12 13 14 14 14
19 20 21 19 19 18 16 15 14 14 15 15 14 14 15 15 14 13 11 9 7 6 5 5 5 4 2 1 1 1 2 3 4 4 3 2 2 3 3 3 3 3 3 4 5 6 6 6 7 8 8 8 9 9 9 10 10 11 11 11 10 10 9 9 9 9 8 8 8 9 9 9 10 11 12 12 13 13 12 13 13 13 14 15 15
20 20 21 20 20 19 17 16 16 15 15 15 16 16 16 16 15 14 12 9 7 5 6 6 5 3 2 0 2 3 3 3 4 4 4 3 3 4 4 3 3 4 4 5 6 7 7 7 8 8 8 8 8 8 9 9 10 10 10 10 9 9 8 8 8 7 7 7 7 7 7 8 9 10 11 13 14 14 14 14 14 14 14 15 16
22 20 22 22 21 20 18 17 16 16 16 16 17 18 17 17 15 14 11 9 7 5 6 5 3 2 1 1 2 4 4 3 4 4 3 4 4 4 4 4 4 5 6 7 7 7 7 8 8 8 8 8 8 8 8 9 9 10 10 10 9 8 7 7 7 6 6 6 6 7 7 8 8 9 10 12 14 15 15 15 15 15 15 15 16
23 21 22 23 22 21 18 16 16 15 15 16 17 19 18 17 16 13 11 9 7 6 5 4 3 2 0 1 2 3 3 3 4 4 3 4 4 5 5 5 6 7 7 7 7 7 8 9 9 9 9 9 8 8 8 9 9 10 10 9 8 7 6 6 6 6 5 6 6 7 7 8 8 9 10 11 13 14 14 14 15 16 15 14 14
23 22 23 24 22 20 18 17 16 14 13 15 17 19 19 18 16 13 11 10 8 6 4 2 2 2 2 2 2 3 3 3 4 4 4 4 4 4 4 5 7 8 8 8 8 9 10 10 10 10 10 10 9 9 9 9 10 10 9 8 6 6 5 5 5 4 4 5 6 7 7 8 9 10 11 11 12 13 14 14 14 15 14 13 13
21 21 23 24 23 21 19 18 17 15 13 14 17 19 18 17 15 13 11 10 9 6 3 2 3 3 3 3 3 3 3 4 4 5 4 3 3 3 4 6 7 9 10 10 11 11 11 10 11 11 11 11 11 10 9 9 9 9 7 6 5 5 4 4 4 4 4 5 6 7 8 9 10 11 12 12 12 13 13 14 14 14 14 14 14
20 22 24 24 23 21 20 18 17 16 15 15 17 18 17 15 14 13 12 10 8 5 3 4 4 4 5 5 4 4 5 5 5 5 4 3 3 5 6 7 9 10 11 11 11 11 11 11 12 13 12 12 11 10 9 7 6 5 5 5 4 4 3 3 3 4 5 6 7 9 10 11 11 12 12 12 13 13 13 13 13 13 13 13 13
20 22 24 25 23 21 21 19 17 17 17 17 18 18 16 15 13 12 10 8 6 5 5 5 5 5 5 5 4 5 5 5 5 4 4 3 5 7 8 10 10 10 11 11 12 12 12 12 12 12 11 11 10 8 6 3 2 2 3 4 4 4 3 3 3 4 5 7 8 9 10 11 12 12 12 13 13 13 13 14 14 14 13 12 12
21 23 25 26 25 22 21 19 19 19 18 18 18 17 16 13 11 9 8 6 6 6 6 6 6 5 5 4 4 4 5 4 3 3 3 4 6 8 10 10 10 11 12 13 13 13 13 12 11 10 9 8 6 5 4 2 1 1 3 5 5 4 3 2 3 5 6 7 8 9 11 12 12 13 13 14 13 13 14 15 15 16 16 15 14
22 24 26 26 22 21 20 20 21 20 18 17 16 15 13 11 9 8 7 7 7 7 7 6 6 6 4 4 3 3 3 2 2 3 5 7 8 10 11 11 12 14 15 15 15 14 12 10 8 7 7 6 4 4 4 3 1 2 3 5 5 4 2 2 4 6 7 8 10 11 12 13 13 13 14 14 14 15 16 16 17 17 18 18 17
23 24 26 24 19 20 22 21 21 19 17 16 14 13 12 10 9 8 7 8 8 8 8 7 7 5 4 4 3 3 3 3 4 6 8 9 11 11 12 13 14 15 16 15 14 11 8 6 5 5 5 6 5 5 5 4 2 2 3 4 4 4 1 3 6 6 7 9 10 12 13 14 14 14 15 15 16 17 18 18 19 19 20 20 20
24 24 24 23 20 20 21 21 20 18 16 15 14 13 11 10 10 9 8 8 8 9 8 7 6 6 6 5 5 4 5 5 6 8 10 11 12 12 13 15 16 16 15 13 10 7 4 4 4 5 6 6 6 6 5 5 5 3 3 3 3 4 3 2 4 6 8 8 11 14 15 15 15 15 16 17 18 19 19 19 20 21 21 21 21
27 24 22 21 20 20 20 20 18 16 15 13 13 12 12 12 12 10 10 10 10 10 10 8 8 8 7 6 5 5 6 7 8 11 12 13 13 14 16 16 16 14 11 8 5 4 5 5 5 6 6 5 6 7 6 6 8 7 5 4 4 4 4 4 3 5 7 8 11 14 15 15 16 17 18 19 19 20 20 21 21 22 22 22 23
28 24 21 21 21 20 20 19 17 16 14 12 11 12 12 13 13 12 12 13 13 12 11 9 9 9 7 7 6 6 8 9 10 12 13 14 15 16 15 14 12 9 6 4 5 5 6 5 6 6 5 5 7 7 6 8 9 9 10 9 7 6 7 8 6 4 5 7 11 14 14 15 16 17 19 19 20 20 20 21 21 22 22 22 23
26 24 23 22 20 19 19 18 18 17 15 13 12 12 12 13 13 12 12 13 13 12 11 9 9 9 8 7 7 7 9 10 12 13 14 14 15 14 12 10 7 5 5 6 6 6 6 6 6 6 6 6 7 7 8 9 9 10 12 11 11 11 10 11 9 7 5 5 10 15 15 16 16 17 19 19 19 19 19 20 20 21 22 22 23
24 24 23 22 20 19 19 18 18 17 15 14 14 13 13 13 13 12 12 13 12 11 10 10 10 9 8 8 8 9 10 12 14 14 13 12 12 10 9 6 5 5 6 6 6 6 6 6 6 7 7 8 8 8 9 10 10 11 13 12 12 12 11 12 12 11 8 5 9 17 17 17 17 18 19 19 18 19 20 20 21 22 23 24 24
24 24 23 21 20 19 19 18 18 17 15 15 15 14 13 13 13 13 13 12 11 11 11 10 9 8 8 8 8 10 12 14 14 12 11 10 10 8 6 4 5 6 6 6 5 6 6 6 7 8 8 9 9 10 10 11 12 12 13 13 12 12 12 12 12 13 13 10 12 18 19 19 20 20 19 18 17 18 20 21 23 24 24 25 26
27 26 24 21 20 20 19 19 19 18 17 16 16 15 14 13 13 13 13 12 12 12 11 11 10 9 8 7 8 11 14 14 11 9 10 10 9 7 3 4 6 6 6 5 5 6 6 7 8 9 9 9 11 11 11 13 13 13 13 12 12 13 12 13 14 15 15 14 15 17 19 20 21 21 21 20 20 21 23 24 24 25 26 27 28
28 28 26 23 21 20 20 20 19 18 17 17 17 16 15 14 13 13 12 11 11 12 11 11 10 8 7 6 9 12 13 11 9 10 10 9 7 3 3 5 6 6 5 5 5 6 7 8 9 9 9 10 12 12 12 13 13 12 12 12 13 14 13 14 15 15 15 16 16 17 18 19 21 21 20 20 20 22 25 25 25 26 27 28 28
Wind_Direction
171 168 172 182 174 166 172 176 171 166 160 159 160 159 153 149 146 143 141 137 131 124 122 118 116 117 116 113 110 110 112 116 116 109 92 75 63 56 54 48 48 56 70 81 90 108 117 121 123 128 138 134 126 120 117 116 112 109 107 104 101 97 93 89 86 82 78 74 71 70 68 64 58 56 53 52 51 48 47 46 45 46 45 44 44
167 166 173 181 175 168 174 177 173 168 162 161 162 160 156 153 149 146 144 138 130 125 122 119 118 118 117 113 110 112 112 115 113 102 86 73 61 56 57 48 47 57 75 94 104 113 117 119 121 125 129 126 123 121 120 119 113 110 108 105 101 98 94 90 86 81 77 73 71 69 68 67 63 58 54 51 49 47 45 43 41 42 42 42 42
167 164 172 180 174 172 175 178 174 169 166 163 163 162 159 155 153 149 146 140 132 128 126 123 123 122 120 116 112 111 110 111 107 96 82 73 63 58 53 42 46 59 79 99 111 116 119 120 122 123 123 123 121 120 120 118 113 110 107 104 101 98 94 90 85 80 76 73 70 68 66 64 61 57 52 48 45 43 41 39 38 38 38 39 40
171 164 172 180 175 175 177 179 176 171 168 165 164 163 160 157 154 152 149 142 137 132 131 129 128 126 121 119 115 112 109 108 102 92 83 78 72 66 44 34 45 63 86 102 113 118 121 121 122 123 122 123 121 120 119 116 114 110 106 103 100 96 93 89 84 80 76 73 69 66 63 59 56 53 49 44 40 38 35 34 33 33 33 34 36
171 166 174 179 176 177 179 180 177 173 169 167 165 163 161 159 156 154 153 146 141 138 136 134 132 128 123 122 117 116 113 108 101 94 89 86 80 69 39 35 54 72 95 105 115 119 121 122 123 124 123 123 121 120 118 117 115 110 107 104 100 96 92 88 84 81 77 74 70 65 61 56 53 49 45 41 37 34 33 31 30 29 29 30 32
169 169 177 181 179 178 180 180 177 174 170 169 166 165 163 160 158 157 156 151 146 143 140 137 134 129 125 123 119 119 117 114 110 105 99 94 85 74 48 43 61 79 100 108 119 122 121 123 123 124 123 122 122 121 119 117 114 111 109 105 101 97 93 89 84 81 78 74 69 64 61 57 54 49 44 41 37 35 33 31 30 28 29 29 30
169 172 178 185 182 180 181 179 178 173 171 171 168 167 165 161 160 159 158 153 149 144 141 137 134 129 125 121 120 121 121 122 118 117 108 100 94 95 88 54 64 85 106 114 122 125 124 124 124 124 123 124 124 122 120 118 115 113 110 107 103 98 94 88 83 78 75 70 65 63 62 60 57 52 47 43 40 37 34 32 32 31 30 31 30
171 175 181 187 186 182 180 179 177 174 173 172 170 169 166 162 161 161 158 153 149 144 141 137 133 129 125 122 121 122 124 124 118 120 114 112 117 124 124 76 79 99 112 121 124 124 125 125 126 126 126 126 125 124 122 121 119 116 112 107 102 96 90 84 77 71 70 66 63 63 62 59 55 51 46 43 40 37 35 33 33 33 32 31 29
172 176 185 189 187 183 180 179 176 174 175 173 172 170 166 163 162 161 158 153 149 145 141 138 134 130 127 124 123 124 124 119 112 114 114 118 128 133 125 102 101 110 120 128 126 124 127 127 128 128 127 127 126 126 126 125 121 117 112 106 98 91 85 78 72 67 67 65 61 61 59 54 50 47 43 41 39 37 34 32 32 32 30 27 24
173 179 187 189 188 182 179 180 177 175 175 175 173 169 166 163 163 162 158 154 151 146 143 139 136 134 131 129 128 129 124 115 110 110 113 116 117 120 119 119 116 119 129 134 131 128 130 130 129 129 128 128 129 129 129 127 121 114 108 101 93 84 79 75 71 67 65 64 60 58 55 51 47 43 40 38 37 35 33 31 28 24 21 18 16
178 185 188 188 186 182 180 180 177 177 176 174 171 167 166 165 165 163 159 156 152 147 143 142 140 138 136 135 136 132 125 117 112 109 111 112 111 116 123 129 126 126 134 139 137 131 132 132 129 129 130 131 131 129 127 123 115 107 104 97 87 78 74 72 71 66 62 62 58 55 52 48 44 40 36 34 32 29 28 27 23 18 14 12 13
182 189 191 188 185 181 179 180 178 178 176 172 168 166 166 166 165 163 161 157 150 147 143 142 143 141 139 135 133 126 120 114 110 108 108 110 112 118 129 134 132 131 138 142 140 135 133 132 131 133 134 132 129 126 121 113 102 96 94 87 77 72 67 65 64 60 58 57 53 50 48 46 43 36 32 30 27 25 25 23 21 18 15 13 15
185 193 195 191 186 182 180 180 180 179 175 169 169 167 166 166 165 164 161 155 148 146 144 144 143 140 135 129 124 118 114 111 108 106 104 107 112 121 132 137 135 134 141 145 144 141 139 136 137 138 137 134 130 126 118 105 92 82 74 64 60 62 57 55 53 51 53 50 45 43 43 42 41 35 30 27 25 24 22 21 21 20 18 16 17
190 195 196 197 190 183 181 181 180 179 172 169 171 169 169 167 165 163 158 152 149 147 145 143 142 136 129 122 116 113 110 109 108 103 100 103 111 121 132 137 137 137 143 150 150 149 147 144 144 143 142 140 135 129 120 108 92 73 51 38 36 38 36 39 39 42 44 37 31 29 33 33 34 34 29 24 23 22 21 22 23 23 21 19 17
198 200 199 200 193 184 182 182 181 177 172 173 174 171 169 167 164 162 156 153 151 148 146 142 136 128 122 118 112 110 108 108 107 102 99 102 110 122 133 139 139 140 146 154 156 156 155 153 152 151 150 147 142 137 130 119 101 74 36 14 7 7 10 19 22 25 24 21 17 16 21 22 25 29 28 24 21 21 22 24 24 23 22 20 17
203 207 206 201 192 184 181 183 182 177 176 177 175 172 168 166 164 161 158 157 153 147 145 136 127 123 121 117 110 107 106 107 105 100 99 102 109 121 135 140 140 141 146 154 160 161 162 162 161 160 159 157 154 151 147 141 132 102 360 339 336 338 345 358 5 4 4 7 9 11 13 13 16 20 25 24 19 18 20 22 21 20 19 18 17
204 210 209 202 192 184 181 183 181 177 180 180 175 172 168 166 166 164 163 160 155 148 142 131 123 123 122 117 111 108 107 107 104 100 99 102 107 118 134 140 140 140 143 151 160 166 170 171 171 171 171 171 171 170 172 178 187 222 275 295 307 317 324 335 345 347 349 352 357 3 5 3 6 12 21 22 17 14 14 15 15 16 16 14 14
206 210 209 201 190 184 181 181 177 173 180 181 176 174 170 169 169 167 166 162 155 147 138 128 123 125 122 116 111 109 108 106 103 100 99 103 108 115 129 137 137 138 142 146 153 163 172 178 180 181 184 186 189 190 195 207 225 243 259 276 291 300 307 316 325 329 333 338 344 350 352 355 359 7 14 18 15 10 8 7 7 11 12 11 9
207 208 207 197 186 184 181 178 174 172 174 177 177 177 175 173 172 169 169 165 153 145 136 128 126 125 120 116 114 111 109 104 100 98 97 103 110 115 125 134 136 138 142 145 149 155 164 173 180 186 190 196 201 207 217 229 242 256 268 279 287 291 295 303 310 316 322 329 335 338 342 350 359 6 7 10 9 4 2 1 2 6 8 6 4
207 207 203 193 185 186 182 177 175 174 175 174 175 181 182 178 175 173 171 165 153 145 137 132 129 125 122 121 120 116 110 105 100 97 95 99 109 117 124 132 137 140 144 148 152 155 160 167 177 186 194 202 210 218 227 236 247 260 274 286 292 293 294 297 301 308 315 321 329 334 341 351 356 358 358 3 2 358 358 356 358 2 2 359 358
204 204 197 189 187 188 184 181 178 178 177 173 175 182 186 185 180 176 171 165 156 149 142 136 132 128 127 125 122 118 111 106 102 97 95 95 103 115 124 131 137 142 146 152 158 162 166 171 180 190 198 206 214 222 229 237 246 258 276 293 302 303 301 298 297 301 307 315 325 330 335 340 343 346 350 355 353 353 354 351 349 345 346 347 346
201 199 192 189 189 188 187 184 180 180 177 174 178 182 187 190 184 177 172 165 157 152 147 141 135 132 128 126 123 117 109 103 101 97 96 96 99 106 115 125 132 140 146 153 163 170 175 180 189 197 205 214 222 229 234 241 247 257 272 289 301 307 305 300 296 297 303 312 319 320 321 324 329 335 342 349 347 348 348 345 340 334 338 341 338
200 195 190 189 189 188 187 185 183 181 179 180 179 180 189 192 184 176 173 166 160 156 151 145 138 133 129 128 126 119 111 104 99 96 98 97 99 103 106 112 120 129 139 150 161 174 182 189 200 210 215 222 233 238 240 242 247 255 269 283 295 303 306 308 309 310 314 317 318 317 316 318 323 330 338 343 342 343 342 338 334 338 343 338 337
199 194 193 192 189 187 186 186 186 181 183 185 179 182 193 190 181 176 173 167 164 160 152 148 141 135 133 131 128 123 116 109 102 99 100 99 102 105 105 106 108 111 118 129 140 158 172 189 209 225 228 231 240 245 245 248 253 262 275 287 296 304 311 318 322 323 324 324 321 319 318 318 325 333 340 340 339 339 336 332 332 340 342 337 339
198 196 195 194 191 189 188 188 187 186 189 189 182 187 193 187 181 179 175 172 169 163 151 145 142 138 137 135 130 125 120 115 107 106 107 105 108 110 109 103 102 100 94 90 80 78 56 340 242 248 253 257 259 261 263 266 273 277 285 292 297 304 313 321 321 322 323 323 317 311 311 312 318 325 331 332 331 327 323 324 327 333 334 335 340
198 199 197 196 195 192 190 188 187 189 192 191 187 191 191 187 184 182 181 178 172 166 155 147 143 142 144 142 138 132 129 126 117 120 122 117 118 114 109 96 84 80 67 45 21 6 349 331 312 291 287 297 297 304 304 302 300 298 298 298 303 308 316 322 323 324 324 320 310 305 307 308 312 316 321 324 321 316 314 316 320 322 324 329 331
200 201 199 198 197 194 191 188 188 189 191 189 189 193 193 189 186 184 184 180 173 168 161 154 147 144 148 147 146 143 137 134 134 140 142 144 138 121 107 89 72 57 40 15 352 341 326 308 303 302 299 306 311 313 310 309 309 309 312 313 316 321 323 325 324 323 322 316 308 306 308 310 314 317 319 321 320 318 317 318 320 321 321 324 326
204 203 201 200 199 196 191 188 188 187 188 186 189 196 195 191 187 184 182 176 171 167 162 157 152 147 146 147 150 150 143 137 152 158 160 174 167 136 122 103 86 55 35 4 335 326 315 295 296 300 298 301 303 307 311 316 322 324 327 327 329 330 327 326 323 321 319 313 309 309 310 312 315 317 318 317 315 315 316 320 322 321 321 324 327
209 206 203 202 200 196 190 187 186 184 185 186 190 195 193 191 188 182 177 173 169 165 163 159 156 152 148 148 150 148 146 140 151 166 168 180 177 140 130 116 96 67 40 355 329 325 317 298 299 299 294 295 299 313 327 332 335 336 335 334 332 330 326 324 324 321 319 315 312 311 311 312 313 316 318 317 315 315 318 323 324 322 322 325 328
211 208 205 203 202 196 189 186 184 182 184 185 190 192 190 190 188 184 178 173 171 168 167 168 166 163 157 155 159 158 153 142 132 136 133 167 181 129 124 110 96 85 61 343 321 317 311 305 303 299 300 311 320 330 338 338 337 337 335 332 329 327 324 322 321 320 319 317 314 312 310 310 312 316 320 319 319 319 318 323 329 330 330 334 337
212 209 205 204 203 198 191 187 183 181 184 187 190 189 187 189 191 191 188 183 179 176 182 189 190 183 173 168 167 170 141 127 95 81 65 5 322 16 100 114 89 49 37 356 328 322 319 316 312 312 322 331 339 341 340 338 336 336 334 330 326 325 323 321 319 318 316 316 315 314 312 312 314 316 318 318 319 320 315 315 320 323 325 332 338
213 209 206 204 204 201 195 192 188 184 187 190 192 190 187 189 193 196 196 194 189 187 197 197 192 185 178 182 190 275 10 12 16 14 360 348 321 313 313 331 10 7 11 359 344 338 329 327 326 328 334 338 342 342 339 336 335 336 333 330 327 325 324 322 320 318 317 317 316 316 315 314 314 315 317 318 320 323 321 317 315 315 316 320 326
215 210 206 205 204 202 197 196 195 191 192 194 194 193 190 190 194 197 199 201 197 192 195 186 178 174 170 194 271 320 348 352 351 344 330 325 314 308 310 323 356 356 352 348 343 340 334 332 332 334 336 336 338 337 334 331 331 334 334 333 330 327 329 329 328 328 327 325 323 322 320 318 318 319 321 322 325 328 328 325 322 321 320 320 322
217 211 205 204 205 202 197 197 198 195 196 197 196 194 191 191 194 197 199 203 202 195 192 185 175 166 151 192 321 325 329 332 333 328 314 304 305 308 313 325 347 344 335 335 337 337 334 330 329 328 329 330 333 333 328 326 328 333 336 335 333 334 337 336 338 339 338 338 336 333 329 327 326 325 326 326 327 330 330 329 328 327 326 324 324
219 214 205 203 206 203 197 196 198 198 201 201 198 194 190 191 194 196 199 202 202 198 196 189 182 175 141 352 327 321 316 313 316 318 307 299 304 306 313 325 335 332 327 328 329 329 327 324 323 323 325 328 331 333 328 325 327 330 333 334 335 339 340 339 341 341 340 342 341 338 336 333 330 328 329 328 328 328 329 330 330 328 326 324 323
220 216 206 203 206 203 195 193 199 206 208 203 197 193 190 191 194 197 201 206 206 202 196 188 188 202 307 329 316 311 302 297 297 305 303 299 304 304 311 322 326 323 323 324 322 319 320 317 316 319 324 326 328 333 330 326 326 326 328 331 332 333 333 333 333 332 336 337 334 335 336 334 333 333 333 330 328 326 325 325 324 321 319 317 317
220 216 206 204 205 198 188 192 205 212 207 200 194 191 188 190 194 199 204 208 209 205 198 197 215 252 310 308 288 289 282 277 280 287 292 293 301 306 314 319 319 317 316 316 315 314 314 312 312 317 320 322 327 329 325 321 320 320 321 322 321 318 316 316 317 321 325 325 328 334 338 338 339 338 336 334 330 325 323 320 317 314 313 312 310
219 213 203 203 204 194 189 199 209 207 196 188 188 187 186 190 196 203 208 209 208 207 213 246 272 280 293 288 275 273 269 263 268 275 280 286 294 301 307 307 304 306 308 311 312 312 312 315 316 318 319 321 322 320 315 312 313 312 311 306 301 297 293 296 304 311 315 322 334 341 343 343 342 340 338 336 332 328 325 321 318 314 312 310 308
214 206 200 203 203 193 194 204 204 194 184 179 181 184 185 191 200 206 212 212 213 219 236 264 276 270 271 275 268 261 259 253 256 260 265 274 287 293 296 296 297 304 310 312 312 312 316 319 318 317 317 319 320 319 314 312 308 300 293 285 277 271 269 278 292 306 321 335 346 348 348 347 346 344 343 343 342 339 335 330 329 326 324 320 315
208 201 200 203 201 196 199 203 197 188 182 180 180 183 187 193 203 211 215 216 227 239 250 265 271 265 261 261 252 241 242 241 242 247 254 273 286 291 293 294 299 308 313 313 314 317 318 316 314 312 317 323 328 329 329 331 307 272 261 260 256 250 257 277 295 319 338 348 354 354 355 355 354 353 353 355 355 350 346 343 343 343 343 341 334
205 199 203 206 200 199 202 199 195 190 188 190 188 189 193 198 207 217 221 224 239 247 253 260 263 263 257 242 222 216 224 235 244 258 275 285 289 291 292 295 303 313 315 317 320 320 318 314 312 316 326 337 345 348 359 33 94 226 231 234 232 233 245 270 317 339 347 357 6 8 7 6 4 3 3 4 2 358 356 354 353 352 352 353 352
206 202 206 209 202 199 199 193 194 195 194 196 194 196 200 205 218 227 230 233 238 246 253 255 256 255 238 218 204 199 218 248 267 279 284 287 291 293 295 303 312 316 316 319 321 319 318 316 320 333 346 358 16 28 33 50 89 232 228 215 216 223 238 291 332 345 356 10 18 17 15 12 9 10 10 9 6 4 2 1 360 357 357 358 358
208 206 208 212 208 199 194 191 198 202 198 197 197 202 205 211 224 234 239 240 239 245 247 246 252 244 209 203 207 190 201 230 252 268 278 285 291 294 301 312 316 316 316 319 320 319 322 331 345 360 12 19 25 38 49 55 76 176 195 198 206 194 195 313 331 354 14 21 19 18 18 17 14 14 14 12 11 9 8 7 5 4 2 1 0
206 208 208 210 206 196 193 197 205 206 200 199 201 205 210 217 227 235 241 245 245 246 241 232 236 231 208 206 214 209 226 251 267 280 289 293 299 306 314 317 314 313 316 319 322 331 354 18 27 30 29 22 14 23 41 52 64 102 163 186 177 145 132 338 344 18 30 24 16 15 18 18 16 15 15 15 14 12 11 11 8 7 5 3 1
207 207 204 205 201 195 199 204 205 202 199 201 206 211 216 222 227 228 230 234 234 233 228 220 220 224 217 214 226 241 261 275 284 294 301 307 315 320 320 316 312 314 319 328 349 25 46 51 46 44 32 18 16 20 31 48 57 68 88 113 122 119 102 64 47 44 37 26 16 14 15 17 16 13 13 14 14 13 11 10 8 6 5 3 2
202 198 197 202 201 199 202 204 201 200 201 202 210 219 224 230 235 237 236 231 223 219 220 221 223 227 224 224 239 258 271 280 288 299 310 318 323 322 318 315 316 326 345 21 51 58 57 55 49 49 36 26 32 27 36 53 58 63 65 71 76 74 70 67 77 80 51 37 26 20 18 20 18 14 13 14 14 12 10 8 7 6 5 4 3
195 190 194 200 199 198 200 201 201 202 204 206 212 222 228 234 239 244 244 236 228 221 220 224 227 231 232 234 251 269 277 284 295 306 314 319 321 321 319 322 336 8 41 58 63 59 55 53 49 51 43 42 48 41 47 55 54 55 54 55 54 54 56 56 65 78 71 52 30 25 27 26 22 18 16 15 13 10 10 10 9 8 7 6 5
197 191 196 198 195 195 198 200 202 205 208 211 216 224 229 231 233 231 229 230 231 228 224 226 227 229 234 244 262 276 282 290 301 311 316 318 321 324 327 341 18 49 63 63 58 53 51 49 50 56 54 57 62 55 54 55 50 49 48 47 44 44 46 45 51 54 52 54 25 20 25 27 25 23 19 16 13 11 11 12 11 10 8 7 5
204 199 199 198 194 194 198 201 204 208 211 215 218 223 223 222 225 223 220 221 221 224 227 229 228 225 232 248 268 282 292 301 309 314 317 321 325 327 336 17 61 74 77 70 61 54 53 57 62 67 66 65 66 61 58 56 52 51 49 46 43 42 41 40 41 39 39 43 26 17 19 19 21 22 19 17 17 15 15 13 12 11 9 7 6
207 205 203 200 197 195 199 203 207 210 213 217 218 219 217 214 217 217 217 216 215 222 228 225 223 226 235 256 280 292 303 313 317 318 321 327 329 328 355 69 87 87 83 73 67 62 64 71 73 74 73 69 67 63 58 56 54 55 53 50 46 42 38 35 34 31 30 32 25 17 16 16 17 18 16 16 16 18 17 15 13 10 8 6 4
208 206 205 203 200 198 201 205 209 211 213 217 216 215 214 213 213 210 212 219 222 228 230 227 229 237 253 279 292 299 310 317 319 323 326 328 327 333 71 95 94 87 84 77 71 72 73 76 77 77 74 69 66 61 58 58 57 55 52 46 42 39 36 34 32 29 26 26 23 17 14 15 16 17 15 13 14 15 15 14 12 9 7 5 1